This is the latest recevied weather packets stored in our database for station/object KD5FHA. If no packets are shown the sender has not sent any weather packets the latest 10 day(s).
| Time | Temp. | Humidity | Pressure | Rain* | Wind** | Luminosity | Snow |
|---|---|---|---|---|---|---|---|
| 1777472360 | 16.67° C | 76% | 1015.8 hPa | 0 mm | - | 44 W/m² | - |
| 1777472058 | 16.67° C | 76% | 1015.9 hPa | 0 mm | - | 47 W/m² | - |
| 1777471753 | 16.11° C | 76% | 1015.9 hPa | 0 mm | - | 45 W/m² | - |
| 1777471450 | 16.11° C | 75% | 1015.9 hPa | 0 mm | - | 48 W/m² | - |
| 1777471146 | 16.67° C | 75% | 1015.8 hPa | 0 mm | - | 48 W/m² | - |
| 1777470843 | 16.67° C | 75% | 1015.6 hPa | 0 mm | - | 49 W/m² | - |
| 1777470540 | 16.67° C | 75% | 1015.9 hPa | 0 mm | - | 42 W/m² | - |
| 1777470236 | 16.67° C | 75% | 1015.7 hPa | 0 mm | - | 43 W/m² | - |
| 1777469932 | 16.67° C | 75% | 1015.8 hPa | 0 mm | - | 36 W/m² | - |
| 1777469628 | 16.67° C | 74% | 1015.7 hPa | 0 mm | - | 26 W/m² | - |
| 1777469324 | 16.67° C | 74% | 1015.7 hPa | 0 mm | - | 30 W/m² | - |
| 1777469019 | 16.67° C | 74% | 1015.6 hPa | 0 mm | - | 41 W/m² | - |
| 1777468714 | 16.67° C | 74% | 1015.8 hPa | 0 mm | - | 40 W/m² | - |
| 1777468411 | 16.67° C | 73% | 1015.5 hPa | 0 mm | - | 24 W/m² | - |
| 1777468107 | 16.67° C | 73% | 1015.6 hPa | 0 mm | - | 27 W/m² | - |
| 1777467804 | 16.67° C | 73% | 1015.4 hPa | 0 mm | - | 28 W/m² | - |
| 1777467499 | 17.22° C | 73% | 1015.2 hPa | 0 mm | - | 33 W/m² | - |
| 1777467194 | 17.22° C | 73% | 1015.5 hPa | 0 mm | - | 21 W/m² | - |
| 1777466892 | 17.22° C | 73% | 1015.4 hPa | 0 mm | - | 24 W/m² | - |
| 1777466590 | 17.22° C | 72% | 1015.4 hPa | 0 mm | - | 17 W/m² | - |
| 1777466286 | 17.22° C | 71% | 1014.9 hPa | 0 mm | - | 18 W/m² | - |
| 1777465982 | 17.22° C | 71% | 1014.9 hPa | 0 mm | - | 21 W/m² | - |
| 1777465678 | 17.22° C | 72% | 1014.9 hPa | 0 mm | - | 19 W/m² | - |
| 1777465374 | 17.22° C | 71% | 1015 hPa | 0 mm | - | 8 W/m² | - |
| 1777465072 | 17.78° C | 71% | 1014.9 hPa | 0 mm | - | 6 W/m² | - |
* Rain latest hour (hover to see other rain measurements)
** Current wind speed in m/s (hover to see current wind gust speed)